SCP
0 0 0 -0 -0 -0 -0 -0 -0 -0 -0 -0 -0 -0 -0 -0 -0 -0 -0 -0 -0 -0 0 -0 -0 -0 -0 -0 -0 -0 -0 -0 -0 0 -0 -0 -0 -0 0 0 0 0 0
0 0 0 0 -0 -0 -0 0 0 -0 -0 -0 -0 -0 -0 -0 -0 -0 -0 -0 -0 -0 -0 -0 -0 -0 -0 -0 -0 -0 -0 0 0 0 0 0 -0 0 0 0 0 0 0
-0 -0 0 -0 -0 -0 -0 -0 0 0 -0 -0 -0 -0 -0 -0 -0 -0 -0 -0 -0 -0 -0 -0 -0 -0 -0 -0 -0 -0 -0 0 0 0 -0 -0 -0 0 0 0 0 0 0
-0 -0 -0 -0 -0 -0 -0 -0 -0 -0 -0 -0 -0 -0 -0 -0 -0 -0 -0 -0 -0 -0 -0 -0 -0 -0 -0 -0 0 0 -0 -0 -0 0 -0 -0 0 0 0 0 0 0 0
-0 -0 -0 -0 -0 -0 -0 -0 -0 -0 -0 -0 -0 -0 -0 -0 -0 -0 -0 -0 -0 -0 -0 -0 -0 -0 -0 0 0 0 0 -0 0 0 0 0 0 0 0 0 0 0 0
0 0 -0 -0 -0 -0 -0 -0 -0 -0 -0 -0 -0 -0 -0 -0 -0 -0 -0 0 -0 -0 -0 -0 -0 -0 0 -0 0 0 0 0 0 0 0 0 0 0 0 0 0 0 0
-0 -0 -0 -0 -0 -0 -0 -0 -0 -0 -0 -0 -0 -0 -0 -0 -0 -0 -0 -0 -0 -0 0 -0 -0 0 0 0 0 0 0 0 0 0 0 0 0 0 0 0 0 0 0
-0 -0 -0 -0 -0 -0 -0 -0 -0 -0 -0 -0 -0 -0 -0 -0 -0 -0 -0 -0 -0 -0 0 -0 0 0 0 0 0 0 0 0 0 0 0 0 0 0 0 0 0 0 0
-0 -0 -0 -0 -0 -0 -0 -0 -0 -0 -0 -0 -0 -0 -0 -0 -0 -0 -0 -0 -0 0 0 0 0 0 0 0 0 0 0 0 0 0 0 0 0 0 0 0 0 0 0
0 0 0 0 0 0 0 -0 -0 -0 -0 -0 -0 -0 -0 -0 -0 -0 0 0 -0 -0 0 0 0 0 0 0 0 0 0 0 0 0 0 0 0 0 0 0 0 0 0
0 0 0 0 0 0 0 0 0 0 0 0 0 -0 -0 0 -0 -0 0 -0 -0 -0 -0 -0 0 0 0 0 0 0 0 0 0 0 0 0 0 0 0 0 0 0 0
0 0 0 0 0 0 0 0 0 0 0 0 0 0 0 0 0 0 0 0 0 0 0 0 0 0 0 0 0 0 0 0 0 0 0 0 0 0 0 0 0 0 0
0 0 0 0 0 0 0 0 0 0 0 0 -0 -0 0 0 0 0 0 0 0 0 0 0 0 0 0 0 0 0 0 0 0 0 0 0 0 0 0 0 0 0 0
0 0 0 0 0 0 0 0 0 0 0 0 0 0 0 0 0 0 0 0 0 0 0 0 0 0 0 0 0 0 0 0 0 0 0 0 0 0 0 0 0 0 0
0 0 0 0 0 0 0 0 0 0 0 0 0 0 0 0 0 0 0 0 0 0 0 0 0 0 0 0 0 0 0 0 0 0 0 0 0 0 0 0 0 0 0
0 0 0 0 0 0 0 0 0 0 0 0 0 0 0 0 0 0 0 0 0 0 0 0 0 0 0 0 0 0 0 0 0 0 0 0 0 0 0 0 0 0 0
0 0 0 0 0 0 0 0 0 0 0 0 0 0 0 0 0 0 0 0 0 0 0 0 0 0 0 0 0 0 0 0 0 0 0 0 0 0 0 0 0 0 0
0 0 0 0 0 0 0 0 0 0 0 0 0 0 0 0 0 0 0 0 0 0 0 0 0 0 0 0 0 0 0 0 0 0 0 0 0 0 0 0 0 0 0
0 0 0 0 0 0 0 0 0 0 0 0 0 0 0 0 0 0 0 0 0 0 0 0 0 0 0 0 0 0 0 0 0 0 0 0 0 0 0 0 0 0 0
0 0 0 0 0 0 0 0 0 0 0 0 0 0 0 0 0 0 0 0 0 0 0 0 0 0 0 0 0 0 0 0 0 0 0 0 0 0 0 0 0 0 0
0 0 0 0 0 0 0 0 0 0 0 0 0 0 0 0 0 0 0 0 0 0 0 0 0 0 0 0 0 0 0 0 0 0 0 0 0 0 0 0 0 0 0
0 0 0 0 0 0 0 0 0 0 0 0 0 0 0 0 0 0 0 0 0 0 0 0 0 0 0 0 0 0 0 0 0 0 0 0 0 0 0 0 0 0 0
0 0 0 0 0 0 0 0 0 0 0 0 0 0 0 0 0 0 0 0 0 0 0 0 0 0 0 0 0 0 0 0 0 0 0 0 0 0 0 0 0 0 0
0 0 0 0 0 0 0 0 0 0 0 0 0 0 0 0 0 0 0 0 0 0 0 0 0 0 0 0 0 0 0 0 0 0 0 0 0 0 0 0 0 0 0
0 0 0 0 0 0 0 0 0 0 0 0 0 0 0 0 0 0 0 0 0 0 0 0 0 0 0 0 0 0 0 0 0 0 0 0 0 0 0 0 0 0 0
0 0 0 0 0 0 0 0 0 0 0 0 0 0 0 0 0 0 0 0 0 0 0 0 0 0 0 0 0 0 0 0 0 0 0 0 0 0 0 0 0 0 0
Wind_Speed_500mb
21 22 22 23 22 22 21 21 19 16 17 17 18 23 27 29 26 23 17 22 24 18 13 21 23 27 26 25 25 23 21 21 20 20 23 23 21 21 23 23 22 23 22
21 23 24 24 24 21 20 20 19 16 13 13 16 18 20 19 15 9 11 18 27 25 19 15 22 21 22 20 22 20 17 15 15 16 20 24 22 17 18 19 16 15 17
20 23 25 23 23 20 19 18 16 16 14 14 20 16 14 12 12 9 4 13 22 19 25 19 22 22 20 20 18 12 10 11 13 16 19 21 23 20 18 17 14 16 17
21 21 20 21 19 18 16 15 15 16 17 12 14 13 11 13 14 10 10 17 12 16 20 19 24 24 20 17 14 10 7 4 9 16 18 20 17 18 16 17 11 10 13
21 19 17 19 16 14 13 13 15 16 17 12 11 14 12 10 11 12 12 15 14 16 17 14 17 20 20 15 10 9 8 3 6 14 18 21 17 19 17 13 9 9 9
18 13 12 15 13 11 11 11 11 12 12 10 11 11 9 10 10 9 7 14 15 9 13 9 12 19 17 14 9 10 9 7 7 12 13 16 17 18 18 14 9 7 7
16 11 9 14 13 10 9 9 9 9 7 8 8 3 3 5 8 9 7 4 6 7 10 5 4 13 18 14 12 7 12 11 12 8 12 14 17 17 20 16 10 8 8
17 15 13 15 14 11 7 6 5 4 5 5 5 6 3 2 4 7 6 4 7 8 6 3 3 8 12 14 13 8 8 8 9 10 10 15 18 17 20 19 14 11 11
17 18 20 17 16 14 10 7 4 3 2 2 2 3 4 4 6 6 5 3 3 1 0 2 1 4 8 8 9 9 6 5 11 14 13 14 19 18 20 22 19 15 14
18 6 9 13 16 15 13 11 10 8 7 7 6 7 6 6 6 8 8 7 4 4 4 6 7 7 9 11 12 12 12 12 13 18 19 18 18 25 26 23 23 20 17
16 10 6 4 3 4 6 10 10 10 9 11 12 12 12 11 11 10 8 7 6 9 11 11 11 13 14 15 17 18 18 16 17 21 23 23 21 26 30 28 25 24 21
14 8 5 5 6 7 8 9 13 14 12 12 14 17 17 16 16 16 15 14 11 12 15 17 18 18 18 19 21 23 22 21 20 22 26 26 25 27 33 33 33 29 27
9 9 6 7 9 13 16 15 19 20 18 17 17 17 16 16 17 18 18 18 17 18 20 21 22 22 21 20 21 24 27 26 25 23 25 28 29 29 35 34 38 37 32
17 11 11 12 12 13 16 20 23 24 23 23 21 21 21 20 19 20 22 21 21 22 25 25 25 24 24 22 21 21 24 26 28 29 31 34 34 35 38 39 38 37 37
20 18 18 18 18 19 23 21 22 25 27 26 28 25 26 26 28 22 24 27 26 27 28 28 29 28 28 27 27 28 27 30 31 32 35 39 43 44 44 43 42 41 37
24 26 25 22 20 23 30 31 30 27 27 29 31 30 27 28 28 33 32 29 30 30 29 30 31 32 33 34 35 35 36 37 37 36 38 39 40 43 46 48 48 47 43
25 29 30 30 33 38 40 39 37 36 34 33 31 30 31 33 35 35 37 38 37 32 33 33 33 36 38 37 40 39 41 41 43 43 42 42 41 42 43 43 44 47 49
33 35 38 39 39 39 40 42 42 40 38 36 31 26 26 29 36 37 36 41 39 39 39 39 38 39 41 41 41 42 41 41 40 41 43 43 41 42 43 44 45 44 44
34 36 37 40 46 47 44 42 42 39 38 36 33 30 28 27 33 38 37 37 38 41 44 43 42 43 44 44 44 45 45 44 45 46 48 47 47 48 51 47 45 46 47
35 39 42 46 47 51 43 40 40 40 40 37 35 32 27 29 30 33 34 37 39 39 40 43 42 45 46 48 50 51 49 51 52 54 52 52 47 44 41 45 49 43 39
37 39 42 44 50 47 37 33 32 33 31 28 32 29 19 15 25 25 35 28 33 40 41 42 46 48 51 47 46 52 53 52 55 51 49 49 46 43 48 40 40 43 42
39 41 41 40 41 35 30 25 23 23 26 25 27 26 25 26 24 29 29 25 23 24 29 33 36 41 46 45 48 50 45 50 52 45 34 43 48 41 39 42 45 46 45
43 39 35 35 34 30 25 22 21 25 31 30 27 22 22 24 26 28 25 26 24 22 22 23 24 27 31 32 34 38 22 19 34 43 44 39 33 34 39 47 42 42 47
37 36 33 31 29 22 18 15 16 19 28 29 26 24 24 20 23 24 26 25 27 28 28 27 28 31 28 30 28 32 36 43 34 26 35 42 42 37 35 37 40 43 41
38 35 33 31 25 17 15 15 14 17 22 23 22 23 25 29 32 33 32 29 28 29 28 30 32 30 26 26 25 31 32 35 30 34 40 33 33 43 41 40 40 40 37
45 40 37 30 21 17 17 16 14 12 13 15 18 22 25 27 30 30 29 28 29 30 33 33 32 33 34 29 29 30 22 23 20 26 36 36 29 30 29 30 26 30 25
Wind_Direction_500mb
145 138 129 122 114 104 97 98 98 98 92 90 107 117 116 115 121 124 128 132 95 102 136 99 100 103 106 110 103 94 83 70 66 57 47 39 32 30 29 28 38 77 77
148 144 135 131 124 111 105 106 105 108 103 87 105 108 132 138 140 146 95 95 115 103 103 136 115 114 107 103 99 87 78 64 48 34 34 29 22 18 23 26 39 65 82
159 148 146 135 126 117 109 105 107 118 112 109 93 106 123 142 159 178 132 81 122 106 99 115 140 127 121 112 111 100 63 39 20 14 8 9 16 21 16 33 34 55 67
159 147 148 144 132 121 113 103 100 105 118 111 94 79 108 108 112 143 124 121 111 115 108 115 137 151 138 132 135 116 111 44 358 352 353 10 7 15 16 17 36 55 60
149 147 144 155 143 130 123 110 104 104 116 116 99 99 91 85 84 92 130 125 127 120 106 120 133 153 161 158 160 153 155 227 351 357 3 11 25 20 10 10 9 15 51
127 131 138 158 154 140 126 110 100 102 111 117 107 96 80 67 57 37 81 126 134 143 131 141 122 147 150 146 184 200 188 228 283 317 1 16 12 15 8 3 353 346 42
149 177 172 170 171 157 139 123 117 113 110 115 145 143 103 55 74 53 58 84 115 155 154 158 146 159 152 139 179 187 191 210 254 305 336 5 6 5 6 355 338 315 311
172 186 189 186 188 185 173 143 130 117 124 137 152 190 229 283 9 26 54 115 131 150 164 126 127 175 178 174 188 197 180 202 228 297 320 336 340 345 356 352 331 307 293
185 190 186 191 197 204 206 207 197 201 214 224 227 220 223 263 304 318 338 65 128 75 55 248 260 206 213 211 208 226 237 233 236 277 297 317 332 333 344 346 335 313 290
198 229 166 183 202 213 223 232 233 235 248 257 257 263 268 274 286 303 320 315 309 303 292 283 286 276 254 254 256 259 261 257 251 257 285 302 310 319 326 334 330 318 302
205 193 163 156 152 188 201 214 227 227 240 252 256 259 263 268 276 284 289 321 322 313 314 306 300 292 280 269 268 269 270 269 260 257 268 286 294 304 312 321 323 314 307
189 198 217 255 284 289 288 266 264 255 253 256 253 254 257 260 265 272 268 279 289 298 306 315 310 302 300 285 278 276 280 277 275 263 263 280 289 295 302 311 315 310 303
176 205 244 279 299 299 292 288 290 276 259 264 258 248 246 248 255 267 269 276 285 290 296 301 308 305 306 302 289 284 282 278 280 281 270 278 286 289 292 300 306 305 302
213 237 263 276 285 299 299 297 292 294 301 281 267 267 266 260 255 267 273 278 284 291 292 291 295 300 301 301 298 299 295 290 288 287 284 284 287 285 286 291 295 295 282
218 242 246 250 265 281 286 292 290 291 293 297 296 295 272 269 273 271 280 282 285 285 289 289 290 293 295 296 294 294 297 297 297 299 297 291 286 284 283 284 286 285 278
223 228 232 238 251 255 265 272 280 282 282 279 283 284 286 296 283 272 275 282 279 279 281 283 285 288 290 292 294 299 301 300 300 299 296 293 290 288 286 285 284 282 276
221 221 233 249 269 272 265 265 265 269 272 274 276 273 269 273 278 287 277 277 277 280 278 280 285 289 291 293 293 295 295 298 298 299 299 298 296 293 291 290 289 287 283
231 242 252 259 274 283 272 265 263 263 263 265 267 268 266 270 268 269 276 277 279 280 283 283 281 282 287 288 290 293 295 298 302 306 304 309 310 312 311 308 300 295 291
240 251 255 266 281 287 279 268 265 264 261 261 260 263 269 273 264 270 270 278 278 275 275 277 281 282 283 284 288 292 293 290 293 296 295 298 299 303 312 312 307 300 295
234 256 258 269 275 289 276 268 263 259 262 262 263 262 265 261 264 271 274 282 276 277 277 277 278 279 283 286 287 287 288 290 294 289 295 303 305 301 304 306 306 308 305
239 254 259 267 282 280 270 267 263 257 254 247 246 243 233 245 254 269 279 282 273 268 268 271 275 275 277 283 292 288 289 285 285 292 293 297 299 302 301 301 305 304 303
244 254 259 269 279 264 262 262 259 240 242 238 246 243 231 240 245 258 272 280 288 280 268 270 275 281 280 280 282 289 292 296 295 294 291 290 290 297 299 306 307 305 298
250 252 253 263 256 254 259 261 251 227 228 233 234 234 219 224 251 254 265 279 280 282 277 276 274 275 280 282 281 280 281 277 294 291 298 299 302 301 294 302 304 306 301
238 243 247 248 244 248 256 259 251 239 226 227 231 228 218 227 247 263 277 276 281 279 276 272 274 270 273 276 285 281 280 287 291 293 296 301 298 298 303 305 309 310 310
225 232 237 233 234 237 248 252 242 225 219 221 223 228 233 241 254 265 266 267 267 269 270 268 273 277 264 270 270 290 299 294 300 299 303 308 295 309 309 307 315 319 328
219 223 224 224 224 232 238 235 228 218 217 223 235 244 252 258 265 266 269 273 274 275 278 278 281 278 278 277 276 276 272 278 285 300 301 302 309 299 303 312 318 315 309
Wind_Speed_850mb
21 22 22 23 22 22 21 21 19 16 17 17 18 23 27 29 26 23 17 22 24 18 13 21 23 27 26 25 25 23 21 21 20 20 23 23 21 21 23 23 22 23 22
21 23 24 24 24 21 20 20 19 16 13 13 16 18 20 19 15 9 11 18 27 25 19 15 22 21 22 20 22 20 17 15 15 16 20 24 22 17 18 19 16 15 17
20 23 25 23 23 20 19 18 16 16 14 14 20 16 14 12 12 9 4 13 22 19 25 19 22 22 20 20 18 12 10 11 13 16 19 21 23 20 18 17 14 16 17
21 21 20 21 19 18 16 15 15 16 17 12 14 13 11 13 14 10 10 17 12 16 20 19 24 24 20 17 14 10 7 4 9 16 18 20 17 18 16 17 11 10 13
21 19 17 19 16 14 13 13 15 16 17 12 11 14 12 10 11 12 12 15 14 16 17 14 17 20 20 15 10 9 8 3 6 14 18 21 17 19 17 13 9 9 9
18 13 12 15 13 11 11 11 11 12 12 10 11 11 9 10 10 9 7 14 15 9 13 9 12 19 17 14 9 10 9 7 7 12 13 16 17 18 18 14 9 7 7
16 11 9 14 13 10 9 9 9 9 7 8 8 3 3 5 8 9 7 4 6 7 10 5 4 13 18 14 12 7 12 11 12 8 12 14 17 17 20 16 10 8 8
17 15 13 15 14 11 7 6 5 4 5 5 5 6 3 2 4 7 6 4 7 8 6 3 3 8 12 14 13 8 8 8 9 10 10 15 18 17 20 19 14 11 11
17 18 20 17 16 14 10 7 4 3 2 2 2 3 4 4 6 6 5 3 3 1 0 2 1 4 8 8 9 9 6 5 11 14 13 14 19 18 20 22 19 15 14
18 6 9 13 16 15 13 11 10 8 7 7 6 7 6 6 6 8 8 7 4 4 4 6 7 7 9 11 12 12 12 12 13 18 19 18 18 25 26 23 23 20 17
16 10 6 4 3 4 6 10 10 10 9 11 12 12 12 11 11 10 8 7 6 9 11 11 11 13 14 15 17 18 18 16 17 21 23 23 21 26 30 28 25 24 21
14 8 5 5 6 7 8 9 13 14 12 12 14 17 17 16 16 16 15 14 11 12 15 17 18 18 18 19 21 23 22 21 20 22 26 26 25 27 33 33 33 29 27
9 9 6 7 9 13 16 15 19 20 18 17 17 17 16 16 17 18 18 18 17 18 20 21 22 22 21 20 21 24 27 26 25 23 25 28 29 29 35 34 38 37 32
17 11 11 12 12 13 16 20 23 24 23 23 21 21 21 20 19 20 22 21 21 22 25 25 25 24 24 22 21 21 24 26 28 29 31 34 34 35 38 39 38 37 37
20 18 18 18 18 19 23 21 22 25 27 26 28 25 26 26 28 22 24 27 26 27 28 28 29 28 28 27 27 28 27 30 31 32 35 39 43 44 44 43 42 41 37
24 26 25 22 20 23 30 31 30 27 27 29 31 30 27 28 28 33 32 29 30 30 29 30 31 32 33 34 35 35 36 37 37 36 38 39 40 43 46 48 48 47 43
25 29 30 30 33 38 40 39 37 36 34 33 31 30 31 33 35 35 37 38 37 32 33 33 33 36 38 37 40 39 41 41 43 43 42 42 41 42 43 43 44 47 49
33 35 38 39 39 39 40 42 42 40 38 36 31 26 26 29 36 37 36 41 39 39 39 39 38 39 41 41 41 42 41 41 40 41 43 43 41 42 43 44 45 44 44
34 36 37 40 46 47 44 42 42 39 38 36 33 30 28 27 33 38 37 37 38 41 44 43 42 43 44 44 44 45 45 44 45 46 48 47 47 48 51 47 45 46 47
35 39 42 46 47 51 43 40 40 40 40 37 35 32 27 29 30 33 34 37 39 39 40 43 42 45 46 48 50 51 49 51 52 54 52 52 47 44 41 45 49 43 39
37 39 42 44 50 47 37 33 32 33 31 28 32 29 19 15 25 25 35 28 33 40 41 42 46 48 51 47 46 52 53 52 55 51 49 49 46 43 48 40 40 43 42
39 41 41 40 41 35 30 25 23 23 26 25 27 26 25 26 24 29 29 25 23 24 29 33 36 41 46 45 48 50 45 50 52 45 34 43 48 41 39 42 45 46 45
43 39 35 35 34 30 25 22 21 25 31 30 27 22 22 24 26 28 25 26 24 22 22 23 24 27 31 32 34 38 22 19 34 43 44 39 33 34 39 47 42 42 47
37 36 33 31 29 22 18 15 16 19 28 29 26 24 24 20 23 24 26 25 27 28 28 27 28 31 28 30 28 32 36 43 34 26 35 42 42 37 35 37 40 43 41
38 35 33 31 25 17 15 15 14 17 22 23 22 23 25 29 32 33 32 29 28 29 28 30 32 30 26 26 25 31 32 35 30 34 40 33 33 43 41 40 40 40 37
45 40 37 30 21 17 17 16 14 12 13 15 18 22 25 27 30 30 29 28 29 30 33 33 32 33 34 29 29 30 22 23 20 26 36 36 29 30 29 30 26 30 25
Wind_Direction_850mb
145 138 129 122 114 104 97 98 98 98 92 90 107 117 116 115 121 124 128 132 95 102 136 99 100 103 106 110 103 94 83 70 66 57 47 39 32 30 29 28 38 77 77
148 144 135 131 124 111 105 106 105 108 103 87 105 108 132 138 140 146 95 95 115 103 103 136 115 114 107 103 99 87 78 64 48 34 34 29 22 18 23 26 39 65 82
159 148 146 135 126 117 109 105 107 118 112 109 93 106 123 142 159 178 132 81 122 106 99 115 140 127 121 112 111 100 63 39 20 14 8 9 16 21 16 33 34 55 67
159 147 148 144 132 121 113 103 100 105 118 111 94 79 108 108 112 143 124 121 111 115 108 115 137 151 138 132 135 116 111 44 358 352 353 10 7 15 16 17 36 55 60
149 147 144 155 143 130 123 110 104 104 116 116 99 99 91 85 84 92 130 125 127 120 106 120 133 153 161 158 160 153 155 227 351 357 3 11 25 20 10 10 9 15 51
127 131 138 158 154 140 126 110 100 102 111 117 107 96 80 67 57 37 81 126 134 143 131 141 122 147 150 146 184 200 188 228 283 317 1 16 12 15 8 3 353 346 42
149 177 172 170 171 157 139 123 117 113 110 115 145 143 103 55 74 53 58 84 115 155 154 158 146 159 152 139 179 187 191 210 254 305 336 5 6 5 6 355 338 315 311
172 186 189 186 188 185 173 143 130 117 124 137 152 190 229 283 9 26 54 115 131 150 164 126 127 175 178 174 188 197 180 202 228 297 320 336 340 345 356 352 331 307 293
185 190 186 191 197 204 206 207 197 201 214 224 227 220 223 263 304 318 338 65 128 75 55 248 260 206 213 211 208 226 237 233 236 277 297 317 332 333 344 346 335 313 290
198 229 166 183 202 213 223 232 233 235 248 257 257 263 268 274 286 303 320 315 309 303 292 283 286 276 254 254 256 259 261 257 251 257 285 302 310 319 326 334 330 318 302
205 193 163 156 152 188 201 214 227 227 240 252 256 259 263 268 276 284 289 321 322 313 314 306 300 292 280 269 268 269 270 269 260 257 268 286 294 304 312 321 323 314 307
189 198 217 255 284 289 288 266 264 255 253 256 253 254 257 260 265 272 268 279 289 298 306 315 310 302 300 285 278 276 280 277 275 263 263 280 289 295 302 311 315 310 303
176 205 244 279 299 299 292 288 290 276 259 264 258 248 246 248 255 267 269 276 285 290 296 301 308 305 306 302 289 284 282 278 280 281 270 278 286 289 292 300 306 305 302
213 237 263 276 285 299 299 297 292 294 301 281 267 267 266 260 255 267 273 278 284 291 292 291 295 300 301 301 298 299 295 290 288 287 284 284 287 285 286 291 295 295 282
218 242 246 250 265 281 286 292 290 291 293 297 296 295 272 269 273 271 280 282 285 285 289 289 290 293 295 296 294 294 297 297 297 299 297 291 286 284 283 284 286 285 278
223 228 232 238 251 255 265 272 280 282 282 279 283 284 286 296 283 272 275 282 279 279 281 283 285 288 290 292 294 299 301 300 300 299 296 293 290 288 286 285 284 282 276
221 221 233 249 269 272 265 265 265 269 272 274 276 273 269 273 278 287 277 277 277 280 278 280 285 289 291 293 293 295 295 298 298 299 299 298 296 293 291 290 289 287 283
231 242 252 259 274 283 272 265 263 263 263 265 267 268 266 270 268 269 276 277 279 280 283 283 281 282 287 288 290 293 295 298 302 306 304 309 310 312 311 308 300 295 291
240 251 255 266 281 287 279 268 265 264 261 261 260 263 269 273 264 270 270 278 278 275 275 277 281 282 283 284 288 292 293 290 293 296 295 298 299 303 312 312 307 300 295
234 256 258 269 275 289 276 268 263 259 262 262 263 262 265 261 264 271 274 282 276 277 277 277 278 279 283 286 287 287 288 290 294 289 295 303 305 301 304 306 306 308 305
239 254 259 267 282 280 270 267 263 257 254 247 246 243 233 245 254 269 279 282 273 268 268 271 275 275 277 283 292 288 289 285 285 292 293 297 299 302 301 301 305 304 303
244 254 259 269 279 264 262 262 259 240 242 238 246 243 231 240 245 258 272 280 288 280 268 270 275 281 280 280 282 289 292 296 295 294 291 290 290 297 299 306 307 305 298
250 252 253 263 256 254 259 261 251 227 228 233 234 234 219 224 251 254 265 279 280 282 277 276 274 275 280 282 281 280 281 277 294 291 298 299 302 301 294 302 304 306 301
238 243 247 248 244 248 256 259 251 239 226 227 231 228 218 227 247 263 277 276 281 279 276 272 274 270 273 276 285 281 280 287 291 293 296 301 298 298 303 305 309 310 310
225 232 237 233 234 237 248 252 242 225 219 221 223 228 233 241 254 265 266 267 267 269 270 268 273 277 264 270 270 290 299 294 300 299 303 308 295 309 309 307 315 319 328
219 223 224 224 224 232 238 235 228 218 217 223 235 244 252 258 265 266 269 273 274 275 278 278 281 278 278 277 276 276 272 278 285 300 301 302 309 299 303 312 318 315 309